Time,TemperatureF,DewpointF,PressureIn,WindDirection,WindDirectionDegrees,WindSpeedMPH,WindSpeedGustMPH,Humidity,HourlyPrecipIn,Conditions,Clouds,dailyrainin,SoftwareType,DateUTC
2013-07-17 00:04:00,68.5,63.1,26.87,SSE,158,0.0,0.0,83,0.00,,,0.00,WUHU216HW,2013-07-17 04:04:00,
2013-07-17 00:09:00,68.1,63.1,26.87,SSE,158,0.0,0.0,84,0.00,,,0.00,WUHU216HW,2013-07-17 04:09:00,
2013-07-17 00:14:00,68.1,63.4,26.87,SSE,158,0.0,0.0,85,0.00,,,0.00,WUHU216HW,2013-07-17 04:14:00,
2013-07-17 00:19:00,68.1,63.4,26.87,SSE,158,0.0,0.0,85,0.00,,,0.00,WUHU216HW,2013-07-17 04:19:00,
2013-07-17 00:24:00,68.1,63.4,26.87,SSE,158,0.0,0.0,85,0.00,,,0.00,WUHU216HW,2013-07-17 04:24:00,
2013-07-17 00:29:00,68.0,63.3,26.87,SSE,158,0.0,0.0,85,0.00,,,0.00,WUHU216HW,2013-07-17 04:29:00,
2013-07-17 00:34:00,67.8,63.1,26.87,SSE,158,0.0,0.0,85,0.00,,,0.00,WUHU216HW,2013-07-17 04:34:00,
2013-07-17 00:39:00,67.8,63.1,26.87,SSE,158,0.0,0.0,85,0.00,,,0.00,WUHU216HW,2013-07-17 04:39:00,
2013-07-17 00:44:00,67.2,62.6,26.87,SSE,158,0.0,0.0,85,0.00,,,0.00,WUHU216HW,2013-07-17 04:44:00,
2013-07-17 00:49:00,67.2,62.6,26.87,SSE,158,0.0,0.0,85,0.00,,,0.00,WUHU216HW,2013-07-17 04:49:00,
2013-07-17 00:54:00,67.2,62.9,26.87,SSE,158,0.0,0.0,86,0.00,,,0.00,WUHU216HW,2013-07-17 04:54:00,
2013-07-17 01:00:00,67.4,63.1,26.87,South,180,0.0,0.0,86,0.00,,,0.00,WUHU216HW,2013-07-17 05:00:00,
2013-07-17 01:05:00,67.8,63.4,26.87,South,180,0.0,0.0,86,0.00,,,0.00,WUHU216HW,2013-07-17 05:05:00,
2013-07-17 01:10:00,67.8,63.4,26.87,South,180,0.0,0.0,86,0.00,,,0.00,WUHU216HW,2013-07-17 05:10:00,
2013-07-17 01:15:00,67.8,63.4,26.87,South,180,0.0,0.0,86,0.00,,,0.00,WUHU216HW,2013-07-17 05:15:00,
2013-07-17 01:20:00,67.6,63.2,26.86,South,180,0.0,0.0,86,0.00,,,0.00,WUHU216HW,2013-07-17 05:20:00,
2013-07-17 01:25:00,67.2,62.9,26.86,South,180,0.0,0.0,86,0.00,,,0.00,WUHU216HW,2013-07-17 05:25:00,
2013-07-17 01:30:00,67.2,62.9,26.86,South,180,0.0,0.0,86,0.00,,,0.00,WUHU216HW,2013-07-17 05:30:00,
2013-07-17 01:35:00,67.2,63.2,26.86,South,180,0.0,0.0,87,0.00,,,0.00,WUHU216HW,2013-07-17 05:35:00,
2013-07-17 01:40:00,67.2,63.2,26.86,South,180,0.0,0.0,87,0.00,,,0.00,WUHU216HW,2013-07-17 05:40:00,
2013-07-17 01:45:00,67.4,63.4,26.85,South,180,0.0,0.0,87,0.00,,,0.00,WUHU216HW,2013-07-17 05:45:00,
2013-07-17 01:50:00,67.6,63.6,26.85,South,180,0.0,0.0,87,0.00,,,0.00,WUHU216HW,2013-07-17 05:50:00,
2013-07-17 01:55:00,67.4,63.4,26.85,South,180,0.0,0.0,87,0.00,,,0.00,WUHU216HW,2013-07-17 05:55:00,
2013-07-17 02:00:00,67.2,63.2,26.86,South,180,0.0,0.0,87,0.00,,,0.00,WUHU216HW,2013-07-17 06:00:00,
2013-07-17 02:05:00,67.2,63.2,26.86,South,180,0.0,0.0,87,0.00,,,0.00,WUHU216HW,2013-07-17 06:05:00,
2013-07-17 02:10:00,67.2,63.2,26.85,South,180,0.0,0.0,87,0.00,,,0.00,WUHU216HW,2013-07-17 06:10:00,
2013-07-17 02:15:00,67.2,63.2,26.85,South,180,0.0,0.0,87,0.00,,,0.00,WUHU216HW,2013-07-17 06:15:00,
2013-07-17 02:20:00,67.4,63.4,26.85,South,180,0.0,0.0,87,0.00,,,0.00,WUHU216HW,2013-07-17 06:20:00,
2013-07-17 02:25:00,67.2,63.2,26.85,South,180,0.0,0.0,87,0.00,,,0.00,WUHU216HW,2013-07-17 06:25:00,
2013-07-17 02:30:00,67.1,63.0,26.85,South,180,0.0,0.0,87,0.00,,,0.00,WUHU216HW,2013-07-17 06:30:00,
2013-07-17 02:35:00,67.1,63.0,26.85,South,180,0.0,0.0,87,0.00,,,0.00,WUHU216HW,2013-07-17 06:35:00,
2013-07-17 02:40:00,67.1,63.0,26.85,South,180,0.0,0.0,87,0.00,,,0.00,WUHU216HW,2013-07-17 06:40:00,
2013-07-17 02:45:00,66.9,62.8,26.85,South,180,0.0,0.0,87,0.00,,,0.00,WUHU216HW,2013-07-17 06:45:00,
2013-07-17 02:50:00,66.7,62.7,26.85,South,180,0.0,0.0,87,0.00,,,0.00,WUHU216HW,2013-07-17 06:50:00,
2013-07-17 02:55:00,66.5,62.5,26.85,South,180,0.0,0.0,87,0.00,,,0.00,WUHU216HW,2013-07-17 06:55:00,
2013-07-17 03:01:00,66.3,62.3,26.85,South,180,0.0,0.0,87,0.00,,,0.00,WUHU216HW,2013-07-17 07:01:00,
2013-07-17 03:06:00,66.0,61.9,26.85,South,180,0.0,0.0,87,0.00,,,0.00,WUHU216HW,2013-07-17 07:06:00,
2013-07-17 03:11:00,66.0,61.9,26.85,WSW,248,0.0,0.0,87,0.00,,,0.00,WUHU216HW,2013-07-17 07:11:00,
2013-07-17 03:16:00,66.0,61.9,26.85,WSW,248,0.0,0.0,87,0.00,,,0.00,WUHU216HW,2013-07-17 07:16:00,
2013-07-17 03:21:00,66.2,61.9,26.85,WSW,248,0.0,0.0,87,0.00,,,0.00,WUHU216HW,2013-07-17 07:21:00,
2013-07-17 03:26:00,66.3,62.6,26.84,WSW,248,0.0,0.0,88,0.00,,,0.00,WUHU216HW,2013-07-17 07:26:00,
2013-07-17 03:31:00,66.7,63.0,26.84,WSW,248,0.0,0.0,88,0.00,,,0.00,WUHU216HW,2013-07-17 07:31:00,
2013-07-17 03:36:00,66.7,63.0,26.85,WSW,248,0.0,0.0,88,0.00,,,0.00,WUHU216HW,2013-07-17 07:36:00,
2013-07-17 03:41:00,66.5,62.8,26.85,WSW,248,0.0,0.0,88,0.00,,,0.00,WUHU216HW,2013-07-17 07:41:00,
2013-07-17 03:46:00,66.7,63.0,26.85,WSW,248,0.0,0.0,88,0.00,,,0.00,WUHU216HW,2013-07-17 07:46:00,
2013-07-17 03:51:00,66.7,63.0,26.85,WSW,248,0.0,0.0,88,0.00,,,0.00,WUHU216HW,2013-07-17 07:51:00,
2013-07-17 03:56:00,66.5,62.8,26.85,WSW,248,0.0,0.0,88,0.00,,,0.00,WUHU216HW,2013-07-17 07:56:00,
2013-07-17 04:01:00,66.5,62.8,26.86,WSW,248,0.0,0.0,88,0.00,,,0.00,WUHU216HW,2013-07-17 08:01:00,
2013-07-17 04:06:00,66.3,62.3,26.85,WSW,248,0.0,0.0,87,0.00,,,0.00,WUHU216HW,2013-07-17 08:06:00,
2013-07-17 04:11:00,66.3,62.3,26.86,WSW,248,0.0,0.0,87,0.00,,,0.00,WUHU216HW,2013-07-17 08:11:00,
2013-07-17 04:16:00,66.0,61.9,26.85,WSW,248,0.0,0.0,87,0.00,,,0.00,WUHU216HW,2013-07-17 08:16:00,
2013-07-17 04:21:00,66.3,62.6,26.86,WSW,248,0.0,0.0,88,0.00,,,0.00,WUHU216HW,2013-07-17 08:21:00,
2013-07-17 04:26:00,66.5,62.8,26.86,WSW,248,0.0,0.0,88,0.00,,,0.00,WUHU216HW,2013-07-17 08:26:00,
2013-07-17 04:31:00,66.5,62.8,26.86,WSW,248,0.0,0.0,88,0.00,,,0.00,WUHU216HW,2013-07-17 08:31:00,
2013-07-17 04:36:00,66.7,63.0,26.86,WSW,248,0.0,0.0,88,0.00,,,0.00,WUHU216HW,2013-07-17 08:36:00,
2013-07-17 04:41:00,66.9,63.2,26.86,WSW,248,0.0,0.0,88,0.00,,,0.00,WUHU216HW,2013-07-17 08:41:00,
2013-07-17 04:46:00,66.9,63.2,26.86,WSW,248,0.0,0.0,88,0.00,,,0.00,WUHU216HW,2013-07-17 08:46:00,
2013-07-17 04:51:00,66.7,62.7,26.86,WSW,248,0.0,0.0,87,0.00,,,0.00,WUHU216HW,2013-07-17 08:51:00,
2013-07-17 04:56:00,66.7,62.7,26.86,WSW,248,0.0,0.0,87,0.00,,,0.00,WUHU216HW,2013-07-17 08:56:00,
2013-07-17 05:01:00,66.7,63.0,26.86,WSW,248,0.0,0.0,88,0.00,,,0.00,WUHU216HW,2013-07-17 09:01:00,
2013-07-17 05:06:00,66.7,63.0,26.86,WSW,248,0.0,0.0,88,0.00,,,0.00,WUHU216HW,2013-07-17 09:06:00,
2013-07-17 05:11:00,66.7,63.0,26.86,WSW,248,0.0,0.0,88,0.00,,,0.00,WUHU216HW,2013-07-17 09:11:00,
2013-07-17 05:16:00,66.9,63.2,26.86,WSW,248,0.0,0.0,88,0.00,,,0.00,WUHU216HW,2013-07-17 09:16:00,
2013-07-17 05:21:00,66.9,63.2,26.86,WSW,248,0.0,0.0,88,0.00,,,0.00,WUHU216HW,2013-07-17 09:21:00,
2013-07-17 05:26:00,66.9,63.2,26.86,WSW,248,0.0,0.0,88,0.00,,,0.00,WUHU216HW,2013-07-17 09:26:00,
2013-07-17 05:31:00,67.1,63.3,26.86,WSW,248,0.0,0.0,88,0.00,,,0.00,WUHU216HW,2013-07-17 09:31:00,
2013-07-17 05:36:00,67.1,63.3,26.86,WSW,248,0.0,0.0,88,0.00,,,0.00,WUHU216HW,2013-07-17 09:36:00,
2013-07-17 05:41:00,67.1,63.3,26.86,WSW,248,0.0,0.0,88,0.00,,,0.00,WUHU216HW,2013-07-17 09:41:00,
2013-07-17 05:46:00,67.1,63.3,26.86,WSW,248,0.0,0.0,88,0.00,,,0.00,WUHU216HW,2013-07-17 09:46:00,
2013-07-17 05:51:00,67.1,63.3,26.86,WSW,248,0.0,0.0,88,0.00,,,0.00,WUHU216HW,2013-07-17 09:51:00,
2013-07-17 05:56:00,67.2,63.5,26.86,WSW,248,0.0,0.0,88,0.00,,,0.00,WUHU216HW,2013-07-17 09:56:00,
2013-07-17 06:02:00,67.2,63.2,26.86,WSW,248,0.0,0.0,87,0.00,,,0.00,WUHU216HW,2013-07-17 10:02:00,
2013-07-17 06:07:00,67.2,63.2,26.86,WSW,248,0.0,0.0,87,0.00,,,0.00,WUHU216HW,2013-07-17 10:07:00,
2013-07-17 06:12:00,67.2,63.2,26.86,WSW,248,0.0,0.0,87,0.00,,,0.00,WUHU216HW,2013-07-17 10:12:00,
2013-07-17 06:17:00,67.2,63.2,26.86,WSW,248,0.0,0.0,87,0.00,,,0.00,WUHU216HW,2013-07-17 10:17:00,
2013-07-17 06:22:00,67.2,63.2,26.86,WSW,248,0.0,0.0,87,0.00,,,0.00,WUHU216HW,2013-07-17 10:22:00,
2013-07-17 06:27:00,67.2,63.2,26.86,WSW,248,0.0,0.0,87,0.00,,,0.00,WUHU216HW,2013-07-17 10:27:00,
2013-07-17 06:32:00,67.2,63.2,26.86,WSW,248,0.0,0.0,87,0.00,,,0.00,WUHU216HW,2013-07-17 10:32:00,
2013-07-17 06:37:00,67.2,63.2,26.86,WSW,248,0.0,0.0,87,0.00,,,0.00,WUHU216HW,2013-07-17 10:37:00,
2013-07-17 06:42:00,67.2,63.2,26.86,WSW,248,0.0,0.0,87,0.00,,,0.00,WUHU216HW,2013-07-17 10:42:00,
2013-07-17 06:47:00,67.2,63.2,26.86,WSW,248,0.0,0.0,87,0.00,,,0.00,WUHU216HW,2013-07-17 10:47:00,
2013-07-17 06:52:00,67.1,63.0,26.87,WSW,248,0.0,0.0,87,0.00,,,0.00,WUHU216HW,2013-07-17 10:52:00,
2013-07-17 06:57:00,66.9,62.8,26.87,WSW,248,0.0,0.0,87,0.00,,,0.00,WUHU216HW,2013-07-17 10:57:00,
2013-07-17 07:02:00,66.7,62.7,26.87,WSW,248,0.0,0.0,87,0.00,,,0.00,WUHU216HW,2013-07-17 11:02:00,
2013-07-17 07:07:00,66.7,62.7,26.87,WSW,248,0.0,0.0,87,0.00,,,0.00,WUHU216HW,2013-07-17 11:07:00,
2013-07-17 07:12:00,66.7,62.7,26.87,WSW,248,0.0,0.0,87,0.00,,,0.00,WUHU216HW,2013-07-17 11:12:00,
2013-07-17 07:17:00,66.7,62.7,26.87,WSW,248,0.0,0.0,87,0.00,,,0.00,WUHU216HW,2013-07-17 11:17:00,
2013-07-17 07:22:00,66.5,62.5,26.87,WSW,248,0.0,0.0,87,0.00,,,0.00,WUHU216HW,2013-07-17 11:22:00,
2013-07-17 07:27:00,66.3,62.3,26.87,WSW,248,0.0,0.0,87,0.00,,,0.00,WUHU216HW,2013-07-17 11:27:00,
2013-07-17 07:32:00,66.2,62.1,26.87,WSW,248,0.0,0.0,87,0.00,,,0.00,WUHU216HW,2013-07-17 11:32:00,
2013-07-17 07:37:00,66.2,62.1,26.87,WSW,248,0.0,0.0,87,0.00,,,0.00,WUHU216HW,2013-07-17 11:37:00,
2013-07-17 07:42:00,66.3,62.6,26.88,WSW,248,0.0,0.0,88,0.00,,,0.00,WUHU216HW,2013-07-17 11:42:00,
2013-07-17 07:47:00,66.3,62.6,26.88,WSW,248,0.0,0.0,88,0.00,,,0.00,WUHU216HW,2013-07-17 11:47:00,
2013-07-17 07:52:00,66.0,62.6,26.88,WSW,248,0.0,0.0,87,0.00,,,0.00,WUHU216HW,2013-07-17 11:52:00,
2013-07-17 07:57:00,66.2,62.1,26.88,WSW,248,0.0,0.0,87,0.00,,,0.00,WUHU216HW,2013-07-17 11:57:00,
2013-07-17 08:02:00,66.0,61.9,26.88,WSW,248,0.0,0.0,87,0.00,,,0.00,WUHU216HW,2013-07-17 12:02:00,
2013-07-17 08:07:00,66.2,62.1,26.88,WSW,248,0.0,0.0,87,0.00,,,0.00,WUHU216HW,2013-07-17 12:07:00,
2013-07-17 08:12:00,66.2,62.4,26.88,WSW,248,0.0,0.0,88,0.00,,,0.00,WUHU216HW,2013-07-17 12:12:00,
2013-07-17 08:17:00,66.7,63.0,26.88,WSW,248,0.0,0.0,88,0.00,,,0.00,WUHU216HW,2013-07-17 12:17:00,
2013-07-17 08:22:00,67.1,63.3,26.88,WSW,248,0.0,0.0,88,0.00,,,0.00,WUHU216HW,2013-07-17 12:22:00,
2013-07-17 08:27:00,67.6,63.9,26.88,WSW,248,0.0,0.0,88,0.00,,,0.00,WUHU216HW,2013-07-17 12:27:00,
2013-07-17 08:33:00,67.8,64.1,26.88,WSW,248,0.0,0.0,88,0.00,,,0.00,WUHU216HW,2013-07-17 12:33:00,
2013-07-17 08:38:00,68.1,64.4,26.88,WSW,248,0.0,0.0,88,0.00,,,0.00,WUHU216HW,2013-07-17 12:38:00,
2013-07-17 08:43:00,68.5,64.8,26.88,WSW,248,0.0,0.0,88,0.00,,,0.00,WUHU216HW,2013-07-17 12:43:00,
2013-07-17 08:48:00,68.7,64.9,26.88,WSW,248,0.0,0.0,88,0.00,,,0.00,WUHU216HW,2013-07-17 12:48:00,
2013-07-17 08:53:00,69.4,65.6,26.88,WSW,248,0.0,0.0,88,0.00,,,0.00,WUHU216HW,2013-07-17 12:53:00,
2013-07-17 08:58:00,69.6,65.8,26.88,WSW,248,0.0,0.0,88,0.00,,,0.00,WUHU216HW,2013-07-17 12:58:00,
2013-07-17 09:03:00,70.1,66.4,26.88,WSW,248,0.0,0.0,88,0.00,,,0.00,WUHU216HW,2013-07-17 13:03:00,
2013-07-17 09:08:00,70.3,66.5,26.88,WSW,248,0.0,0.0,88,0.00,,,0.00,WUHU216HW,2013-07-17 13:08:00,
2013-07-17 09:13:00,70.7,66.9,26.88,WSW,248,0.0,0.0,88,0.00,,,0.00,WUHU216HW,2013-07-17 13:13:00,
2013-07-17 09:18:00,71.2,67.4,26.88,WSW,248,0.0,0.0,88,0.00,,,0.00,WUHU216HW,2013-07-17 13:18:00,
2013-07-17 09:23:00,71.2,67.4,26.88,WSW,248,0.0,0.0,88,0.00,,,0.00,WUHU216HW,2013-07-17 13:23:00,
2013-07-17 09:28:00,71.7,68.0,26.88,WSW,248,0.0,0.0,88,0.00,,,0.00,WUHU216HW,2013-07-17 13:28:00,
2013-07-17 09:33:00,72.3,68.5,26.88,WSW,248,0.0,0.0,88,0.00,,,0.00,WUHU216HW,2013-07-17 13:33:00,
2013-07-17 09:38:00,72.6,68.5,26.88,WSW,248,0.0,0.0,87,0.00,,,0.00,WUHU216HW,2013-07-17 13:38:00,
2013-07-17 09:43:00,73.0,68.9,26.88,WSW,248,0.0,0.0,87,0.00,,,0.00,WUHU216HW,2013-07-17 13:43:00,
2013-07-17 09:48:00,73.2,68.7,26.88,WSW,248,0.0,0.0,86,0.00,,,0.00,WUHU216HW,2013-07-17 13:48:00,
2013-07-17 09:53:00,73.7,69.3,26.88,WSW,248,0.0,0.0,86,0.00,,,0.00,WUHU216HW,2013-07-17 13:53:00,
2013-07-17 09:59:00,73.9,69.1,26.88,WSW,248,0.0,0.0,85,0.00,,,0.00,WUHU216HW,2013-07-17 13:59:00,
2013-07-17 10:04:00,74.3,69.1,26.88,WSW,248,0.0,0.0,84,0.00,,,0.00,WUHU216HW,2013-07-17 14:04:00,
2013-07-17 10:09:00,74.8,69.3,26.88,WSW,248,0.0,0.0,83,0.00,,,0.00,WUHU216HW,2013-07-17 14:09:00,
2013-07-17 10:14:00,75.0,69.2,26.88,WSW,248,0.0,0.0,82,0.00,,,0.00,WUHU216HW,2013-07-17 14:14:00,
2013-07-17 10:19:00,75.0,68.8,26.88,WSW,248,0.0,0.0,81,0.00,,,0.00,WUHU216HW,2013-07-17 14:19:00,
2013-07-17 10:24:00,75.2,69.2,26.88,WSW,248,0.0,0.0,81,0.00,,,0.00,WUHU216HW,2013-07-17 14:24:00,
2013-07-17 10:29:00,75.5,69.0,26.88,WSW,248,0.0,0.0,80,0.00,,,0.00,WUHU216HW,2013-07-17 14:29:00,
2013-07-17 10:34:00,75.9,69.3,26.88,WSW,248,0.0,0.0,80,0.00,,,0.00,WUHU216HW,2013-07-17 14:34:00,
2013-07-17 10:39:00,76.8,69.7,26.88,WSW,248,0.0,0.0,79,0.00,,,0.00,WUHU216HW,2013-07-17 14:39:00,
2013-07-17 10:44:00,77.5,70.8,26.87,WSW,248,0.0,0.0,80,0.00,,,0.00,WUHU216HW,2013-07-17 14:44:00,
2013-07-17 10:49:00,78.0,71.0,26.88,WSW,248,0.0,0.0,79,0.00,,,0.00,WUHU216HW,2013-07-17 14:49:00,
2013-07-17 10:54:00,78.6,70.9,26.88,SSE,158,0.0,0.0,79,0.00,,,0.00,WUHU216HW,2013-07-17 14:54:00,
2013-07-17 10:59:00,79.3,72.2,26.88,SSE,158,0.0,0.0,79,0.00,,,0.00,WUHU216HW,2013-07-17 14:59:00,
2013-07-17 11:04:00,79.7,71.8,26.88,SE,135,0.0,0.0,77,0.00,,,0.00,WUHU216HW,2013-07-17 15:04:00,
2013-07-17 11:10:00,80.2,71.9,26.88,SSE,158,0.0,0.0,76,0.00,,,0.00,WUHU216HW,2013-07-17 15:10:00,
2013-07-17 11:15:00,79.7,71.0,26.88,SSE,158,0.0,0.0,75,0.00,,,0.00,WUHU216HW,2013-07-17 15:15:00,
2013-07-17 11:20:00,79.3,70.3,26.88,SSE,158,0.0,0.0,74,0.00,,,0.00,WUHU216HW,2013-07-17 15:20:00,
2013-07-17 11:25:00,79.7,71.0,26.88,NE,45,0.0,0.0,75,0.00,,,0.00,WUHU216HW,2013-07-17 15:25:00,
2013-07-17 11:30:00,80.0,71.0,26.88,East,90,0.0,0.0,74,0.00,,,0.00,WUHU216HW,2013-07-17 15:30:00,
2013-07-17 11:35:00,80.7,71.4,26.88,East,90,0.0,0.0,73,0.00,,,0.00,WUHU216HW,2013-07-17 15:35:00,
2013-07-17 11:40:00,81.6,71.3,26.87,ESE,113,0.0,0.0,71,0.00,,,0.00,WUHU216HW,2013-07-17 15:40:00,
2013-07-17 11:45:00,82.2,71.8,26.87,ENE,68,0.0,0.0,71,0.00,,,0.00,WUHU216HW,2013-07-17 15:45:00,
2013-07-17 11:50:00,82.7,71.9,26.87,SE,135,0.0,0.0,70,0.00,,,0.00,WUHU216HW,2013-07-17 15:50:00,
2013-07-17 11:55:00,82.9,71.6,26.87,SE,135,0.0,0.0,69,0.00,,,0.00,WUHU216HW,2013-07-17 15:55:00,
2013-07-17 12:00:00,83.3,72.5,26.88,ESE,113,0.0,0.0,70,0.00,,,0.00,WUHU216HW,2013-07-17 16:00:00,
2013-07-17 12:05:00,83.8,72.5,26.87,SE,135,0.0,0.0,69,0.00,,,0.00,WUHU216HW,2013-07-17 16:05:00,
2013-07-17 12:10:00,84.0,72.3,26.87,SE,135,0.0,0.0,68,0.00,,,0.00,WUHU216HW,2013-07-17 16:10:00,
2013-07-17 12:15:00,83.6,71.9,26.88,SE,135,0.0,0.0,68,0.00,,,0.00,WUHU216HW,2013-07-17 16:15:00,
2013-07-17 12:21:00,83.1,71.4,26.87,SE,135,0.0,0.0,68,0.00,,,0.00,WUHU216HW,2013-07-17 16:21:00,
2013-07-17 12:26:00,82.2,70.5,26.87,SE,135,0.0,0.0,68,0.00,,,0.00,WUHU216HW,2013-07-17 16:26:00,
2013-07-17 12:31:00,81.5,70.3,26.87,SE,135,0.0,0.0,69,0.00,,,0.00,WUHU216HW,2013-07-17 16:31:00,
2013-07-17 12:36:00,81.3,70.6,26.87,SE,135,0.0,0.0,70,0.00,,,0.00,WUHU216HW,2013-07-17 16:36:00,
2013-07-17 12:41:00,82.2,71.4,26.86,SE,135,0.0,0.0,70,0.00,,,0.00,WUHU216HW,2013-07-17 16:41:00,
2013-07-17 12:46:00,82.5,70.8,26.86,SE,135,0.0,0.0,68,0.00,,,0.00,WUHU216HW,2013-07-17 16:46:00,
2013-07-17 12:51:00,82.9,71.2,26.86,SE,135,0.0,0.0,68,0.00,,,0.00,WUHU216HW,2013-07-17 16:51:00,
2013-07-17 12:56:00,83.1,70.9,26.85,ENE,68,0.0,0.0,67,0.00,,,0.00,WUHU216HW,2013-07-17 16:56:00,
2013-07-17 13:01:00,84.0,70.9,26.85,ENE,68,0.0,0.0,65,0.00,,,0.00,WUHU216HW,2013-07-17 17:01:00,
2013-07-17 13:06:00,84.0,70.9,26.85,ENE,68,0.0,0.0,65,0.00,,,0.00,WUHU216HW,2013-07-17 17:06:00,
2013-07-17 13:11:00,83.4,70.8,26.85,ENE,68,0.0,0.0,66,0.00,,,0.00,WUHU216HW,2013-07-17 17:11:00,
2013-07-17 13:16:00,83.8,70.7,26.85,ENE,68,0.0,0.0,65,0.00,,,0.00,WUHU216HW,2013-07-17 17:16:00,
2013-07-17 13:21:00,83.4,70.4,26.85,ENE,68,0.0,0.0,65,0.00,,,0.00,WUHU216HW,2013-07-17 17:21:00,
2013-07-17 13:27:00,82.9,69.8,26.85,ENE,68,0.0,0.0,65,0.00,,,0.00,WUHU216HW,2013-07-17 17:27:00,
2013-07-17 13:32:00,83.3,71.1,26.85,ENE,68,0.0,0.0,67,0.00,,,0.00,WUHU216HW,2013-07-17 17:32:00,
2013-07-17 13:37:00,83.4,70.8,26.85,ENE,68,0.0,0.0,66,0.00,,,0.00,WUHU216HW,2013-07-17 17:37:00,
2013-07-17 13:42:00,83.6,70.6,26.85,ENE,68,0.0,0.0,65,0.00,,,0.00,WUHU216HW,2013-07-17 17:42:00,
2013-07-17 13:47:00,84.3,70.8,26.85,ENE,68,0.0,0.0,64,0.00,,,0.00,WUHU216HW,2013-07-17 17:47:00,
2013-07-17 13:52:00,85.1,71.5,26.84,ENE,68,0.0,0.0,64,0.00,,,0.00,WUHU216HW,2013-07-17 17:52:00,
2013-07-17 13:57:00,84.7,70.7,26.84,ENE,68,0.0,0.0,63,0.00,,,0.00,WUHU216HW,2013-07-17 17:57:00,
2013-07-17 14:02:00,84.3,70.4,26.84,ENE,68,0.0,0.0,63,0.00,,,0.00,WUHU216HW,2013-07-17 18:02:00,
2013-07-17 14:07:00,84.3,71.3,26.84,ENE,68,0.0,0.0,65,0.00,,,0.00,WUHU216HW,2013-07-17 18:07:00,
2013-07-17 14:12:00,84.0,70.5,26.83,ENE,68,0.0,0.0,64,0.00,,,0.00,WUHU216HW,2013-07-17 18:12:00,
2013-07-17 14:17:00,83.1,69.6,26.83,ENE,68,0.0,0.0,64,0.00,,,0.00,WUHU216HW,2013-07-17 18:17:00,
2013-07-17 14:22:00,82.4,69.1,26.82,ENE,68,0.0,0.0,65,0.00,,,0.00,WUHU216HW,2013-07-17 18:22:00,
2013-07-17 14:27:00,82.0,69.4,26.81,ENE,68,0.0,0.0,66,0.00,,,0.00,WUHU216HW,2013-07-17 18:27:00,
2013-07-17 14:32:00,82.2,69.6,26.81,ENE,68,0.0,0.0,66,0.00,,,0.00,WUHU216HW,2013-07-17 18:32:00,
2013-07-17 14:37:00,82.9,70.7,26.81,ENE,68,0.0,0.0,67,0.00,,,0.00,WUHU216HW,2013-07-17 18:37:00,
2013-07-17 14:42:00,82.9,70.3,26.81,ENE,68,0.0,0.0,66,0.00,,,0.00,WUHU216HW,2013-07-17 18:42:00,
2013-07-17 14:47:00,82.9,69.8,26.82,ENE,68,0.0,0.0,65,0.00,,,0.00,WUHU216HW,2013-07-17 18:47:00,
2013-07-17 14:53:00,83.3,70.2,26.81,ENE,68,0.0,0.0,65,0.00,,,0.00,WUHU216HW,2013-07-17 18:53:00,
2013-07-17 14:58:00,82.9,69.4,26.81,ENE,68,0.0,0.0,64,0.00,,,0.00,WUHU216HW,2013-07-17 18:58:00,
2013-07-17 15:03:00,82.2,68.7,26.81,ENE,68,0.0,0.0,64,0.00,,,0.00,WUHU216HW,2013-07-17 19:03:00,
2013-07-17 15:08:00,82.0,68.5,26.81,ENE,68,0.0,0.0,64,0.00,,,0.00,WUHU216HW,2013-07-17 19:08:00,
2013-07-17 15:13:00,82.0,68.5,26.81,ENE,68,0.0,0.0,64,0.00,,,0.00,WUHU216HW,2013-07-17 19:13:00,
2013-07-17 15:18:00,81.1,67.7,26.81,ENE,68,0.0,0.0,64,0.00,,,0.00,WUHU216HW,2013-07-17 19:18:00,
2013-07-17 15:23:00,80.4,67.1,26.81,ENE,68,0.0,0.0,64,0.00,,,0.00,WUHU216HW,2013-07-17 19:23:00,
2013-07-17 15:28:00,79.7,66.7,26.81,ENE,68,0.0,0.0,65,0.00,,,0.00,WUHU216HW,2013-07-17 19:28:00,
2013-07-17 15:33:00,79.5,67.1,26.81,SE,135,0.0,0.0,66,0.00,,,0.00,WUHU216HW,2013-07-17 19:33:00,
2013-07-17 15:38:00,79.5,67.1,26.81,SE,135,0.0,0.0,66,0.00,,,0.00,WUHU216HW,2013-07-17 19:38:00,
2013-07-17 15:43:00,79.5,67.1,26.80,SE,135,0.0,0.0,66,0.00,,,0.00,WUHU216HW,2013-07-17 19:43:00,
2013-07-17 15:48:00,79.5,67.1,26.81,ESE,113,0.0,0.0,66,0.00,,,0.00,WUHU216HW,2013-07-17 19:48:00,
2013-07-17 15:53:00,79.5,67.1,26.82,ESE,113,0.0,0.0,66,0.00,,,0.00,WUHU216HW,2013-07-17 19:53:00,
2013-07-17 15:58:00,79.3,67.4,26.81,ESE,113,0.0,0.0,67,0.00,,,0.00,WUHU216HW,2013-07-17 19:58:00,
2013-07-17 16:03:00,79.1,67.2,26.80,SE,135,0.0,0.0,67,0.00,,,0.00,WUHU216HW,2013-07-17 20:03:00,
2013-07-17 16:08:00,78.8,66.8,26.79,SSE,158,0.0,0.0,67,0.00,,,0.00,WUHU216HW,2013-07-17 20:08:00,
2013-07-17 16:13:00,78.6,66.7,26.79,SSE,158,0.0,0.0,68,0.00,,,0.00,WUHU216HW,2013-07-17 20:13:00,
2013-07-17 16:19:00,78.6,67.1,26.79,SSE,158,0.0,0.0,68,0.00,,,0.00,WUHU216HW,2013-07-17 20:19:00,
2013-07-17 16:24:00,78.6,67.1,26.79,SSE,158,0.0,0.0,68,0.00,,,0.00,WUHU216HW,2013-07-17 20:24:00,
2013-07-17 16:29:00,78.6,67.1,26.79,SSE,158,0.0,0.0,68,0.00,,,0.00,WUHU216HW,2013-07-17 20:29:00,
2013-07-17 16:34:00,78.0,67.0,26.79,SSE,158,0.0,0.0,69,0.00,,,0.00,WUHU216HW,2013-07-17 20:34:00,
2013-07-17 16:39:00,78.0,67.0,26.78,SSE,158,0.0,0.0,69,0.00,,,0.00,WUHU216HW,2013-07-17 20:39:00,
2013-07-17 16:44:00,77.9,67.0,26.79,SSE,158,0.0,0.0,69,0.00,,,0.00,WUHU216HW,2013-07-17 20:44:00,
2013-07-17 16:49:00,77.9,67.3,26.79,SSE,158,0.0,0.0,70,0.00,,,0.00,WUHU216HW,2013-07-17 20:49:00,
2013-07-17 16:54:00,77.7,67.2,26.79,SSE,158,0.0,0.0,70,0.00,,,0.00,WUHU216HW,2013-07-17 20:54:00,
2013-07-17 16:59:00,77.5,67.0,26.79,SE,135,0.0,0.0,70,0.00,,,0.00,WUHU216HW,2013-07-17 20:59:00,
2013-07-17 17:04:00,77.3,66.8,26.79,SE,135,0.0,0.0,70,0.00,,,0.00,WUHU216HW,2013-07-17 21:04:00,
2013-07-17 17:09:00,77.5,67.0,26.78,SE,135,0.0,0.0,70,0.00,,,0.00,WUHU216HW,2013-07-17 21:09:00,
2013-07-17 17:14:00,77.5,67.4,26.78,SE,135,0.0,0.0,71,0.00,,,0.00,WUHU216HW,2013-07-17 21:14:00,
2013-07-17 17:19:00,77.5,67.0,26.78,SE,135,0.0,0.0,70,0.00,,,0.00,WUHU216HW,2013-07-17 21:19:00,
2013-07-17 17:24:00,77.5,67.4,26.79,SE,135,0.0,0.0,71,0.00,,,0.00,WUHU216HW,2013-07-17 21:24:00,
2013-07-17 17:29:00,77.3,67.2,26.80,SE,135,0.0,0.0,71,0.00,,,0.00,WUHU216HW,2013-07-17 21:29:00,
2013-07-17 17:34:00,77.5,67.4,26.81,SE,135,0.0,0.0,71,0.00,,,0.00,WUHU216HW,2013-07-17 21:34:00,
2013-07-17 17:39:00,77.3,67.2,26.81,SE,135,0.0,0.0,71,0.00,,,0.00,WUHU216HW,2013-07-17 21:39:00,
2013-07-17 17:44:00,77.3,67.2,26.80,SE,135,0.0,0.0,71,0.00,,,0.00,WUHU216HW,2013-07-17 21:44:00,
2013-07-17 17:49:00,77.1,67.1,26.79,SE,135,0.0,0.0,71,0.00,,,0.00,WUHU216HW,2013-07-17 21:49:00,
2013-07-17 17:54:00,76.8,66.7,26.80,SE,135,0.0,0.0,71,0.00,,,0.00,WUHU216HW,2013-07-17 21:54:00,
2013-07-17 17:59:00,77.0,67.3,26.80,SE,135,0.0,0.0,72,0.00,,,0.00,WUHU216HW,2013-07-17 21:59:00,
2013-07-17 18:04:00,77.0,67.3,26.80,SE,135,0.0,0.0,72,0.00,,,0.00,WUHU216HW,2013-07-17 22:04:00,
2013-07-17 18:10:00,77.0,67.3,26.79,SE,135,0.0,0.0,72,0.00,,,0.00,WUHU216HW,2013-07-17 22:10:00,
2013-07-17 18:15:00,77.0,67.3,26.78,SE,135,0.0,0.0,72,0.00,,,0.00,WUHU216HW,2013-07-17 22:15:00,
2013-07-17 18:20:00,77.0,67.3,26.77,SE,135,0.0,0.0,72,0.00,,,0.00,WUHU216HW,2013-07-17 22:20:00,
2013-07-17 18:25:00,76.8,67.1,26.78,SE,135,0.0,0.0,72,0.00,,,0.00,WUHU216HW,2013-07-17 22:25:00,
2013-07-17 18:30:00,76.2,66.9,26.79,SE,135,0.0,0.0,73,0.00,,,0.00,WUHU216HW,2013-07-17 22:30:00,
2013-07-17 18:35:00,75.5,67.0,26.79,SE,135,0.0,0.0,75,0.00,,,0.00,WUHU216HW,2013-07-17 22:35:00,
2013-07-17 18:40:00,75.0,66.9,26.79,SSW,203,0.0,0.0,76,0.00,,,0.00,WUHU216HW,2013-07-17 22:40:00,
2013-07-17 18:45:00,74.8,67.1,26.79,SW,225,0.0,0.0,77,0.00,,,0.00,WUHU216HW,2013-07-17 22:45:00,
2013-07-17 18:50:00,74.8,67.1,26.79,WSW,248,0.0,0.0,77,0.00,,,0.00,WUHU216HW,2013-07-17 22:50:00,
2013-07-17 18:55:00,74.8,67.1,26.79,West,270,0.0,0.0,77,0.00,,,0.00,WUHU216HW,2013-07-17 22:55:00,
2013-07-17 19:00:00,74.8,67.5,26.79,West,270,0.0,0.0,78,0.00,,,0.00,WUHU216HW,2013-07-17 23:00:00,
2013-07-17 19:06:00,74.4,67.2,26.80,WNW,293,0.0,0.0,78,0.00,,,0.00,WUHU216HW,2013-07-17 23:06:00,
2013-07-17 19:11:00,74.3,67.4,26.80,WNW,293,0.0,0.0,79,0.00,,,0.00,WUHU216HW,2013-07-17 23:11:00,
2013-07-17 19:16:00,73.9,67.0,26.80,WNW,293,0.0,0.0,79,0.00,,,0.00,WUHU216HW,2013-07-17 23:16:00,
2013-07-17 19:21:00,73.0,66.5,26.79,WNW,293,0.0,2.2,80,0.00,,,0.00,WUHU216HW,2013-07-17 23:21:00,
2013-07-17 19:26:00,72.3,65.8,26.80,WNW,293,4.4,4.4,80,0.00,,,0.00,WUHU216HW,2013-07-17 23:26:00,
2013-07-17 19:31:00,71.6,65.4,26.81,WNW,293,4.2,4.4,81,0.00,,,0.00,WUHU216HW,2013-07-17 23:31:00,
2013-07-17 19:36:00,71.4,65.2,26.82,WNW,293,0.0,4.2,81,0.00,,,0.00,WUHU216HW,2013-07-17 23:36:00,
2013-07-17 19:41:00,71.4,65.2,26.82,WNW,293,0.0,4.2,81,0.00,,,0.00,WUHU216HW,2013-07-17 23:41:00,
2013-07-17 19:46:00,71.4,65.2,26.80,WNW,293,0.0,0.0,81,0.00,,,0.00,WUHU216HW,2013-07-17 23:46:00,
2013-07-17 19:51:00,71.2,65.1,26.80,WNW,293,0.0,0.0,81,0.00,,,0.00,WUHU216HW,2013-07-17 23:51:00,
2013-07-17 19:56:00,70.7,64.9,26.80,WNW,293,2.6,2.6,82,0.00,,,0.00,WUHU216HW,2013-07-17 23:56:00,
2013-07-17 20:01:00,70.5,64.7,26.81,WNW,293,0.0,2.6,82,0.00,,,0.00,WUHU216HW,2013-07-18 00:01:00,
2013-07-17 20:06:00,70.5,65.0,26.82,WNW,293,0.0,2.6,83,0.00,,,0.00,WUHU216HW,2013-07-18 00:06:00,
2013-07-17 20:11:00,70.5,65.0,26.82,WNW,293,0.0,2.2,83,0.00,,,0.00,WUHU216HW,2013-07-18 00:11:00,
2013-07-17 20:16:00,70.7,65.2,26.82,WNW,293,0.0,0.0,83,0.00,,,0.00,WUHU216HW,2013-07-18 00:16:00,
2013-07-17 20:21:00,70.7,65.2,26.82,WNW,293,0.0,0.0,83,0.00,,,0.00,WUHU216HW,2013-07-18 00:21:00,
2013-07-17 20:26:00,70.8,65.4,26.81,WNW,293,0.0,0.0,83,0.00,,,0.00,WUHU216HW,2013-07-18 00:26:00,
2013-07-17 20:31:00,70.7,65.2,26.82,WNW,293,0.0,0.0,83,0.00,,,0.00,WUHU216HW,2013-07-18 00:31:00,
2013-07-17 20:36:00,70.5,65.0,26.82,South,180,0.0,0.0,83,0.00,,,0.00,WUHU216HW,2013-07-18 00:36:00,
2013-07-17 20:41:00,70.3,64.8,26.82,South,180,0.0,0.8,83,0.00,,,0.00,WUHU216HW,2013-07-18 00:41:00,
2013-07-17 20:46:00,70.1,64.3,26.82,South,180,0.0,0.8,82,0.00,,,0.00,WUHU216HW,2013-07-18 00:46:00,
2013-07-17 20:51:00,69.9,64.1,26.83,SSE,158,3.3,3.3,82,0.00,,,0.00,WUHU216HW,2013-07-18 00:51:00,
2013-07-17 20:56:00,69.6,63.8,26.83,SSE,158,0.0,3.3,82,0.00,,,0.00,WUHU216HW,2013-07-18 00:56:00,
2013-07-17 21:02:00,69.6,63.8,26.83,SSE,158,0.0,0.0,82,0.00,,,0.00,WUHU216HW,2013-07-18 01:02:00,
2013-07-17 21:07:00,69.4,63.6,26.82,SSE,158,0.0,0.0,82,0.00,,,0.00,WUHU216HW,2013-07-18 01:07:00,
2013-07-17 21:12:00,69.0,63.6,26.82,West,270,0.0,0.0,83,0.00,,,0.00,WUHU216HW,2013-07-18 01:12:00,
2013-07-17 21:17:00,68.3,62.9,26.81,West,270,2.0,2.0,83,0.00,,,0.00,WUHU216HW,2013-07-18 01:17:00,
2013-07-17 21:22:00,67.8,62.8,26.81,WNW,293,0.0,3.8,84,0.00,,,0.00,WUHU216HW,2013-07-18 01:22:00,
2013-07-17 21:27:00,67.6,62.9,26.81,WNW,293,0.0,3.8,85,0.00,,,0.00,WUHU216HW,2013-07-18 01:27:00,
2013-07-17 21:32:00,67.6,62.9,26.82,WNW,293,0.0,2.4,85,0.00,,,0.00,WUHU216HW,2013-07-18 01:32:00,
2013-07-17 21:37:00,67.2,62.6,26.82,WNW,293,0.0,0.0,85,0.00,,,0.00,WUHU216HW,2013-07-18 01:37:00,
2013-07-17 21:42:00,67.1,62.4,26.82,WNW,293,0.0,0.0,85,0.00,,,0.00,WUHU216HW,2013-07-18 01:42:00,
2013-07-17 21:47:00,66.9,62.0,26.81,WNW,293,0.0,0.0,85,0.00,,,0.00,WUHU216HW,2013-07-18 01:47:00,
2013-07-17 21:52:00,66.7,62.3,26.82,WNW,293,0.0,0.0,86,0.00,,,0.00,WUHU216HW,2013-07-18 01:52:00,
2013-07-17 21:57:00,66.7,62.3,26.83,WNW,293,0.0,0.0,86,0.00,,,0.00,WUHU216HW,2013-07-18 01:57:00,
2013-07-17 22:02:00,66.3,62.0,26.83,WNW,293,0.0,0.0,86,0.00,,,0.00,WUHU216HW,2013-07-18 02:02:00,
2013-07-17 22:07:00,66.3,62.3,26.83,WNW,293,0.0,0.0,87,0.00,,,0.00,WUHU216HW,2013-07-18 02:07:00,
2013-07-17 22:12:00,66.2,62.1,26.83,WNW,293,0.0,0.0,87,0.00,,,0.00,WUHU216HW,2013-07-18 02:12:00,
2013-07-17 22:17:00,66.3,62.6,26.83,WNW,293,0.0,0.0,88,0.00,,,0.00,WUHU216HW,2013-07-18 02:17:00,
2013-07-17 22:22:00,66.3,62.6,26.83,WNW,293,0.0,0.0,88,0.00,,,0.00,WUHU216HW,2013-07-18 02:22:00,
2013-07-17 22:27:00,66.3,62.6,26.83,WNW,293,0.0,0.0,88,0.00,,,0.00,WUHU216HW,2013-07-18 02:27:00,
2013-07-17 22:32:00,66.5,62.8,26.82,WNW,293,0.0,0.0,88,0.00,,,0.00,WUHU216HW,2013-07-18 02:32:00,
2013-07-17 22:37:00,66.5,62.8,26.82,WNW,293,0.0,0.0,88,0.00,,,0.00,WUHU216HW,2013-07-18 02:37:00,
2013-07-17 22:42:00,66.5,62.8,26.83,WNW,293,0.0,0.0,88,0.00,,,0.00,WUHU216HW,2013-07-18 02:42:00,
2013-07-17 22:47:00,66.5,62.8,26.84,WNW,293,0.0,0.0,88,0.00,,,0.00,WUHU216HW,2013-07-18 02:47:00,
2013-07-17 22:52:00,66.3,62.6,26.83,WNW,293,0.0,0.0,88,0.00,,,0.00,WUHU216HW,2013-07-18 02:52:00,
2013-07-17 22:58:00,66.2,62.1,26.83,WNW,293,0.0,0.0,87,0.00,,,0.00,WUHU216HW,2013-07-18 02:58:00,
2013-07-17 23:03:00,66.0,61.9,26.82,WNW,293,0.0,0.0,88,0.00,,,0.00,WUHU216HW,2013-07-18 03:03:00,
2013-07-17 23:08:00,66.0,62.3,26.82,WNW,293,0.0,0.0,88,0.00,,,0.00,WUHU216HW,2013-07-18 03:08:00,
2013-07-17 23:13:00,66.0,62.3,26.82,WNW,293,0.0,0.0,88,0.00,,,0.00,WUHU216HW,2013-07-18 03:13:00,
2013-07-17 23:18:00,66.0,61.9,26.82,WNW,293,0.0,0.0,87,0.00,,,0.00,WUHU216HW,2013-07-18 03:18:00,
2013-07-17 23:23:00,66.0,62.3,26.81,WNW,293,3.3,3.3,88,0.00,,,0.00,WUHU216HW,2013-07-18 03:23:00,
2013-07-17 23:28:00,66.2,62.4,26.80,WNW,293,0.0,3.3,88,0.00,,,0.00,WUHU216HW,2013-07-18 03:28:00,
2013-07-17 23:33:00,66.3,62.6,26.81,WNW,293,0.0,3.3,88,0.00,,,0.00,WUHU216HW,2013-07-18 03:33:00,
2013-07-17 23:38:00,66.5,62.8,26.80,WNW,293,0.0,0.0,88,0.00,,,0.00,WUHU216HW,2013-07-18 03:38:00,
2013-07-17 23:43:00,66.7,63.0,26.80,WNW,293,0.0,0.0,88,0.00,,,0.00,WUHU216HW,2013-07-18 03:43:00,
2013-07-17 23:48:00,66.7,63.0,26.80,WNW,293,0.0,0.0,88,0.00,,,0.00,WUHU216HW,2013-07-18 03:48:00,
2013-07-17 23:53:00,66.5,62.8,26.80,WNW,293,0.0,0.0,88,0.00,,,0.00,WUHU216HW,2013-07-18 03:53:00,
2013-07-17 23:58:00,66.3,62.6,26.80,WNW,293,0.0,0.0,88,0.00,,,0.00,WUHU216HW,2013-07-18 03:58:00,